星链-2618 (STARLINK-2618 )

导读

STARLINK-2618是美国太空探索技术公司(SpaceX)星链项目的v1.5版本低轨通信卫星,于2021年5月26日发射升空,目前仍在轨运行。该卫星运行在轨道高度约477公里近地轨道,倾角53.157°,周期约94分钟,属于星链全球互联网星座的组成部分,旨在为全球提供高带宽、低延迟的互联网接入服务,尤其服务偏远网络薄弱区域,具备自主变轨避撞能力,设计寿命5-7年。

Basic Information
目录编号:
48693
目录名称:
STARLINK-2618
国际标识:
2021-044BH
轨道中心:
EARTH
卫星名称:
星链-2618
卫星全名:
星链-2618 (STARLINK-2618 )
卫星状态:
在轨 (已飞行1934 天)
发射日期:
2021-05-26 UTC
国别 :
美国 (US)
星等 :
--
This satellite is enrolled in the Space Conjunction Data Service (SCDS) and the current flight risk assessment level is: No High Risk
Orbit Information
数据来源 国际轨道数据
星历时间: 2026-09-11T10:07:32+0800
12小时前
查看轨道信息
半长轴: 6849.057km
偏心率: 0.0002184
轨道倾角: 53.160°
近地点辐角 98.468°
升交点赤经 292.443°
平近点角 261.657°
近地点: 469.424km
远地点: 472.416km
周期: 94.017分钟
每日圈数: 15.316397
Detailed Information
固有亮度:
5
最大亮度:
2.5
卫星平台:
Starlink v1.5
覆盖范围:
全球
运营商:
太空探索技术公司
运营商所在国:
美国
制造商(研发单位):
太空探索技术公司
制造商所在国:
美国
使用方式:
暂无
Satellite Introduction
星链(Starlink)计划是由太空探索技术公司(SpaceX)提出的一个巨型低轨卫星互联网星座项目,计划在2019年至2024年间在太空搭建由约1.2万颗卫星组成的“星链”网络,其中1584颗将部署在地球上空550千米处的近地轨道,并从2020年开始工作。该卫星仍在工作。
2D Orbit Map
3D Orbit Map
Orbit Altitude Analysis Chart
Orbit Inclination Analysis Chart
Orbit Comprehensive Analysis Chart
View Comprehensive Chart
Conjunction Data List
Event ID Objects TCA Miss Dist (km) Collision Risk Probability Collision Risk Index (CRI) Action
CDM_260911-235904-869306-882222
2026-09-11T
23:59:15+0000
2.757 km
极远距离
1.493094E-6 低风险 0.38
CDM_260912-193204-869306-860821
2026-09-12T
19:32:09+0000
2.858 km
极远距离
1.419025E-6 低风险 0.38
CDM_260913-184604-869306-839921
2026-09-13T
18:46:25+0000
2.980 km
极远距离
1.253251E-6 低风险 0.37
Miss Distance Evolution Trend with All Objects
Collision Probability Evolution Trend with All Objects